Corona, CA

1:25 AM PDT on June 29, 2017 (GMT -0700)
Corona Municipal

Weather History for KAJO - November, 2013

Change the Weather History Date:

Saturday, November 16, 2013

  Actual Average (KCNO) Record (KCNO)
Temperature  
Mean Temperature 56 °F -  
Max Temperature 63 °F 70 °F 90 °F (2008)
Min Temperature 48 °F 41 °F 28 °F (2000)
Degree Days  
Heating Degree Days 10    
Growing Degree Days 6 (Base 50)    
Moisture  
Dew Point 48 °F    
Average Humidity 72    
Maximum Humidity 100    
Minimum Humidity 48    
Precipitation  
Precipitation 0.00 in - - ()
Sea Level Pressure  
Sea Level Pressure 29.84 in    
Wind  
Wind Speed 2 mph (WSW)    
Max Wind Speed 8 mph    
Max Gust Speed -    
Visibility 10 miles    
Events Rain    
Averages and records for this station are not official NWS values.
T = Trace of Precipitation, MM = Missing Value Source: NWS Daily Summary

Daily Weather History Graph

Daily Weather History Graph

Search for Another Location

Airport or City:

Trip Planner

Search our weather history database for the weather conditions in past years. The results will help you decide how hot, cold, wet, or windy it might be!

Date:

Astronomy

Nov. 16, 2013 Rise Set
Actual Time 6:23 AM PST 4:46 PM PST
Civil Twilight 5:57 AM PST 5:12 PM PST
Nautical Twilight 5:27 AM PST 5:43 PM PST
Astronomical Twilight 4:57 AM PST 6:12 PM PST
Moon 4:23 PM PST (11/16) 5:27 AM PST (11/16)
Length of Visible Light 11h 15m
Length of Day
10h 22m
Waxing Gibbous, 99% of the Moon is Illuminated
Nov 16
Waxing Gibbous
Nov 17
Full
Nov 25
Last Quarter
Dec 2
New
Dec 9
First Quarter

Hourly Weather History & Observations

Time (PST) Temp. Dew Point Humidity Pressure Visibility Wind Dir Wind Speed Gust Speed Precip Events Conditions
12:56 AM 57.9 °F 52.9 °F 83% 29.76 in 10.0 mi Calm Calm - N/A   Mostly Cloudy
1:56 AM 56.8 °F 52.9 °F 87% 29.77 in 10.0 mi WNW 4.6 mph - N/A   Overcast
2:56 AM 54.0 °F 54.0 °F 100% 29.77 in 10.0 mi Calm Calm - N/A   Mostly Cloudy
3:56 AM 50.9 °F 50.9 °F 100% 29.79 in 9.0 mi Calm Calm - N/A   Scattered Clouds
4:03 AM 48.2 °F 48.2 °F 100% 29.80 in 8.0 mi Calm Calm - N/A   Mostly Cloudy
4:14 AM 48.2 °F 48.2 °F 100% 29.80 in 10.0 mi Calm Calm - N/A   Mostly Cloudy
4:56 AM 50.9 °F 50.9 °F 100% 29.79 in 10.0 mi Calm Calm - N/A   Overcast
5:56 AM 52.9 °F 52.9 °F 100% 29.80 in 7.0 mi Calm Calm - 0.00 in Rain Light Rain
6:56 AM 55.9 °F 54.0 °F 93% 29.82 in 10.0 mi WSW 5.8 mph - 0.00 in   Overcast
7:56 AM 56.8 °F 52.0 °F 84% 29.84 in 10.0 mi NE 3.5 mph - N/A   Scattered Clouds
8:56 AM 61.0 °F 50.0 °F 67% 29.86 in 10.0 mi Calm Calm - N/A   Mostly Cloudy
9:39 AM 60.8 °F 48.2 °F 63% 29.88 in 10.0 mi Calm Calm - N/A   Overcast
9:56 AM 61.9 °F 46.9 °F 58% 29.87 in 10.0 mi WSW 6.9 mph - N/A   Overcast
10:56 AM 63.0 °F 45.9 °F 54% 29.86 in 10.0 mi West 5.8 mph - N/A   Overcast
11:56 AM 63.0 °F 45.9 °F 54% 29.84 in 10.0 mi WSW 6.9 mph - N/A   Overcast
12:56 PM 63.0 °F 45.0 °F 52% 29.82 in 10.0 mi SSW 8.1 mph - N/A   Overcast
1:56 PM 63.9 °F 43.9 °F 48% 29.82 in 10.0 mi SW 8.1 mph - N/A   Overcast
2:56 PM 63.0 °F 43.0 °F 48% 29.84 in 10.0 mi SW 5.8 mph - N/A   Mostly Cloudy
3:56 PM 63.0 °F 43.0 °F 48% 29.83 in 10.0 mi SSW 5.8 mph - N/A   Partly Cloudy
4:56 PM 59.9 °F 43.9 °F 55% 29.85 in 10.0 mi West 3.5 mph - N/A   Scattered Clouds
5:56 PM 57.9 °F 45.0 °F 62% 29.86 in 10.0 mi West 3.5 mph - N/A   Partly Cloudy
6:56 PM 54.9 °F 45.0 °F 69% 29.88 in 7.0 mi Calm Calm - N/A   Mostly Cloudy
7:56 PM 57.9 °F 43.0 °F 58% 29.90 in 10.0 mi WSW 3.5 mph - N/A   Overcast
8:56 PM 55.9 °F 43.9 °F 64% 29.91 in 10.0 mi Calm Calm - N/A   Overcast
9:56 PM 56.8 °F 43.9 °F 62% 29.92 in 10.0 mi Calm Calm - N/A   Overcast
10:56 PM 55.9 °F 43.9 °F 64% 29.94 in 10.0 mi Calm Calm - N/A   Mostly Cloudy
11:56 PM 54.9 °F 45.9 °F 72% 29.95 in 10.0 mi Calm Calm - N/A   Overcast